User: anonymous   Login
Location: Dover
(39.1580°N, 75.5250°W)
Time: 22:53:42
(UTC-04:00)
Language:

SeaSat 1 - Orbit

View from above orbital plane
View from above orbital plane
View from above satellite
View from above satellite

Ground track
Ground track

The orbit data is extracted from the following two-line orbital elements,

1 10967U 78064A   16209.82630752 -.00000021  00000-0  34214-4 0  9991
2 10967 108.0038 341.7423 0000893 275.4702  84.6340 14.43565362999793
Epoch (UTC): 27 July 2016 19:49:52
Eccentricity: 0.0000893
inclination: 108.0038°
perigee height: 746 km
apogee height: 747 km
right ascension of ascending node: 341.7423°
argument of perigee: 275.4702°
revolutions per day: 14.43565362
mean anomaly at epoch: 84.6340°
orbit number at epoch: 99979

The dashed part of the orbit path shows where the satellite is in the earth's shadow,  

DLR